Regional Weather Roundup
Issued by NWS

Home | Current Version | Previous Version | Graphics & Text | Print | Product List | Glossary On
Versions: 1 2 3 4 5 6 7 8 9 10 11 12 13 14 15 16 17 18 19 20 21 22 23 24 25 26 27 28 29 30 31 32 33 34 35 36 37 38 39 40 41 42 43 44 45 46 47 48 49 50
000
ASUS45 KCYS 301110
RWRWY

WYOMING REGIONAL WEATHER ROUNDUP
NATIONAL WEATHER SERVICE CHEYENNE WY
500 AM MDT TUE JUN 30 2015

NOTE:  "FAIR" INDICATES FEW OR NO CLOUDS BELOW 12,000 FEET
WITH NO SIGNIFICANT WEATHER AND/OR OBSTRUCTIONS TO VISIBILITY.

WYZ001-301200-
YELLOWSTONE NATIONAL PARK

CITY           SKY/WX    TMP DP  RH WIND       PRES   REMARKS
LK YELLOWSTONE   N/A     56  50  80 CALM      30.38F
W YELLOWSTONE  NOT AVBL

$$
WYZ002>013-054>058-071-098>099-301200-
NORTHERN WYOMING

CITY           SKY/WX    TMP DP  RH WIND       PRES   REMARKS
JACKSON        FAIR      55  52  88 CALM      30.30R
CODY           FAIR      73  50  43 SW13      30.11R
GREYBULL       FAIR      74  54  49 CALM      30.03R
WORLAND        FAIR      73  52  47 S8        30.05S
SHERIDAN       FAIR      68  54  60 W3        30.00S
BUFFALO        FAIR      68  49  50 SE5       30.07F
GILLETTE       FAIR      66  55  67 CALM      30.03F
HULETT         FAIR      70  54  56 SW6       30.04S
NEWCASTLE      FAIR      61  52  72 E5        30.07F

$$
WYZ014>020-022>026-101>103-301200-
CENTRAL WYOMING

CITY           SKY/WX    TMP DP  RH WIND       PRES   REMARKS
BIG PINEY      FAIR      63  45  51 NE5       30.31S
PINEDALE       FAIR      61  45  55 W6        30.32F
DUBOIS         FAIR      55  48  76 NW9       30.32S
LANDER         FAIR      67  47  48 NW6       30.19R
RIVERTON       FAIR      70  47  43 W16       30.20R
CASPER         FAIR      61  44  53 W9        30.15S
DOUGLAS        FAIR      54  52  93 CALM      30.13S

$$
WYZ021-027>030-104>119-301200-
SOUTHERN WYOMING

CITY           SKY/WX    TMP DP  RH WIND       PRES   REMARKS
EVANSTON       FAIR      64  45  49 E8        30.31S
KEMMERER       FAIR      61  43  51 NW8       30.33S
FORT BRIDGER   SUNNY     66  43  42 W5        30.33R
ROCK SPRINGS   FAIR      65  39  38 E6        30.26R
DIXON          FAIR      61  43  52 NE5       30.29R
RAWLINS        FAIR      54  44  69 NE3       30.28R
SARATOGA       FAIR      52  43  71 S5        30.30S
LARAMIE        FAIR      50  44  80 S7        30.31R
CHEYENNE       FAIR      57  44  62 W10       30.22S
TORRINGTON     FAIR      59  55  87 W3        30.07S
PINE BLUFFS    FAIR      54  50  87 SW3       30.16S

$$



USA.gov is the U.S. government's official web portal to all federal, state and local government web resources and services.